Time,TemperatureF,DewpointF,PressureIn,WindDirection,WindDirectionDegrees,WindSpeedMPH,WindSpeedGustMPH,Humidity,HourlyPrecipIn,Conditions,Clouds,dailyrainin,SoftwareType,DateUTC
2013-07-31 00:02:00,55.6,54.0,30.12,NE,35,0.0,2.0,93,0.00,,,0.00,weatherlink.com 1.10,2013-07-31 04:02:00,
2013-07-31 00:17:00,55.1,54.0,30.12,NE,35,0.0,0.0,94,0.00,,,0.00,weatherlink.com 1.10,2013-07-31 04:17:00,
2013-07-31 00:32:00,55.0,53.0,30.12,NE,35,0.0,1.0,94,0.00,,,0.00,weatherlink.com 1.10,2013-07-31 04:32:00,
2013-07-31 00:47:00,54.4,53.0,30.12,NE,35,0.0,1.0,94,0.00,,,0.00,weatherlink.com 1.10,2013-07-31 04:47:00,
2013-07-31 01:02:00,54.1,53.0,30.11,NE,35,0.0,0.0,94,0.00,,,0.00,weatherlink.com 1.10,2013-07-31 05:02:00,
2013-07-31 01:17:00,53.7,52.0,30.11,NE,35,0.0,0.0,95,0.00,,,0.00,weatherlink.com 1.10,2013-07-31 05:17:00,
2013-07-31 01:32:00,53.6,52.0,30.11,NE,35,0.0,0.0,95,0.00,,,0.00,weatherlink.com 1.10,2013-07-31 05:32:00,
2013-07-31 01:47:00,53.5,52.0,30.11,NE,35,0.0,0.0,94,0.00,,,0.00,weatherlink.com 1.10,2013-07-31 05:47:00,
2013-07-31 02:02:00,53.1,52.0,30.11,NE,35,0.0,0.0,95,0.00,,,0.00,weatherlink.com 1.10,2013-07-31 06:02:00,
2013-07-31 02:17:00,52.9,52.0,30.11,NE,35,0.0,0.0,95,0.00,,,0.00,weatherlink.com 1.10,2013-07-31 06:17:00,
2013-07-31 02:32:00,52.8,52.0,30.11,NE,35,0.0,0.0,95,0.00,,,0.00,weatherlink.com 1.10,2013-07-31 06:32:00,
2013-07-31 02:47:00,52.7,51.0,30.11,NE,35,0.0,0.0,95,0.00,,,0.00,weatherlink.com 1.10,2013-07-31 06:47:00,
2013-07-31 03:02:00,52.7,52.0,30.12,NE,35,0.0,0.0,96,0.00,,,0.00,weatherlink.com 1.10,2013-07-31 07:02:00,
2013-07-31 03:17:00,52.9,52.0,30.11,ENE,57,1.0,-999.0,96,26.75,,,0.00,weatherlink.com 1.10,2013-07-31 07:17:00,
2013-07-31 03:32:00,53.2,52.0,30.12,ENE,57,0.0,2.0,96,0.00,,,0.00,weatherlink.com 1.10,2013-07-31 07:32:00,
2013-07-31 03:47:00,53.2,52.0,30.12,ENE,57,0.0,0.0,96,0.00,,,0.00,weatherlink.com 1.10,2013-07-31 07:47:00,
2013-07-31 04:02:00,53.0,52.0,30.12,ENE,57,0.0,0.0,96,0.00,,,0.00,weatherlink.com 1.10,2013-07-31 08:02:00,
2013-07-31 04:17:00,52.8,52.0,30.12,ENE,57,0.0,0.0,96,0.00,,,0.00,weatherlink.com 1.10,2013-07-31 08:17:00,
2013-07-31 04:32:00,52.7,52.0,30.12,NE,49,0.0,1.0,96,0.00,,,0.00,weatherlink.com 1.10,2013-07-31 08:32:00,
2013-07-31 04:47:00,52.7,52.0,30.12,NE,49,0.0,0.0,96,0.00,,,0.00,weatherlink.com 1.10,2013-07-31 08:47:00,
2013-07-31 05:02:00,52.4,51.0,30.12,NE,49,0.0,0.0,96,0.00,,,0.00,weatherlink.com 1.10,2013-07-31 09:02:00,
2013-07-31 05:17:00,52.2,51.0,30.12,NE,49,0.0,0.0,96,0.00,,,0.00,weatherlink.com 1.10,2013-07-31 09:17:00,
2013-07-31 05:32:00,51.7,51.0,30.13,NE,49,2.0,2.0,96,0.00,,,0.00,weatherlink.com 1.10,2013-07-31 09:32:00,
2013-07-31 05:47:00,51.2,50.0,30.13,NE,49,1.0,2.0,97,0.00,,,0.00,weatherlink.com 1.10,2013-07-31 09:47:00,
2013-07-31 06:03:00,51.2,50.0,30.13,NE,49,0.0,0.0,97,0.00,,,0.00,weatherlink.com 1.10,2013-07-31 10:03:00,
2013-07-31 06:18:00,51.4,51.0,30.13,NE,49,0.0,1.0,97,0.00,,,0.00,weatherlink.com 1.10,2013-07-31 10:18:00,
2013-07-31 06:33:00,51.3,51.0,30.14,NE,49,0.0,1.0,97,0.00,,,0.00,weatherlink.com 1.10,2013-07-31 10:33:00,
2013-07-31 06:48:00,51.5,51.0,30.14,NE,51,0.0,2.0,97,0.00,,,0.00,weatherlink.com 1.10,2013-07-31 10:48:00,
2013-07-31 07:03:00,51.5,51.0,30.14,ENE,76,0.0,2.0,97,0.00,,,0.00,weatherlink.com 1.10,2013-07-31 11:03:00,
2013-07-31 07:18:00,51.9,51.0,30.14,East,79,0.0,0.0,97,0.00,,,0.00,weatherlink.com 1.10,2013-07-31 11:18:00,
2013-07-31 07:33:00,52.4,52.0,30.14,East,79,0.0,1.0,97,0.00,,,0.00,weatherlink.com 1.10,2013-07-31 11:33:00,
2013-07-31 07:48:00,53.7,53.0,30.14,East,79,0.0,2.0,97,0.00,,,0.00,weatherlink.com 1.10,2013-07-31 11:48:00,
2013-07-31 08:03:00,55.3,54.0,30.14,East,79,0.0,0.0,95,0.00,,,0.00,weatherlink.com 1.10,2013-07-31 12:03:00,
2013-07-31 08:18:00,57.1,55.0,30.14,East,79,0.0,0.0,92,0.00,,,0.00,weatherlink.com 1.10,2013-07-31 12:18:00,
2013-07-31 08:33:00,59.3,56.0,30.14,East,79,0.0,0.0,88,0.00,,,0.00,weatherlink.com 1.10,2013-07-31 12:33:00,
2013-07-31 08:48:00,62.3,57.0,30.14,East,79,0.0,1.0,84,0.00,,,0.00,weatherlink.com 1.10,2013-07-31 12:48:00,
2013-07-31 09:03:00,65.0,58.0,30.13,NE,35,2.0,3.0,78,0.00,,,0.00,weatherlink.com 1.10,2013-07-31 13:03:00,
2013-07-31 09:18:00,66.9,58.0,30.13,WNW,286,2.0,5.0,72,0.00,,,0.00,weatherlink.com 1.10,2013-07-31 13:18:00,
2013-07-31 09:33:00,67.6,55.0,30.12,NNW,347,1.0,6.0,64,0.00,,,0.00,weatherlink.com 1.10,2013-07-31 13:33:00,
2013-07-31 09:48:00,68.1,55.0,30.12,SW,222,1.0,6.0,64,0.00,,,0.00,weatherlink.com 1.10,2013-07-31 13:48:00,
2013-07-31 10:03:00,68.1,54.0,30.11,SW,222,0.0,5.0,62,0.00,,,0.00,weatherlink.com 1.10,2013-07-31 14:03:00,
2013-07-31 10:18:00,69.4,55.0,30.11,North,5,2.0,5.0,61,0.00,,,0.00,weatherlink.com 1.10,2013-07-31 14:18:00,
2013-07-31 10:33:00,70.5,55.0,30.11,NNW,340,0.0,4.0,59,0.00,,,0.00,weatherlink.com 1.10,2013-07-31 14:33:00,
2013-07-31 10:48:00,71.2,56.0,30.11,SSE,167,1.0,4.0,58,0.00,,,0.00,weatherlink.com 1.10,2013-07-31 14:48:00,
2013-07-31 11:03:00,71.8,54.0,30.11,North,355,1.0,4.0,53,0.00,,,0.00,weatherlink.com 1.10,2013-07-31 15:03:00,
2013-07-31 11:18:00,72.5,54.0,30.10,West,263,1.0,3.0,52,0.00,,,0.00,weatherlink.com 1.10,2013-07-31 15:18:00,
2013-07-31 11:33:00,73.0,55.0,30.10,ESE,118,0.0,4.0,54,0.00,,,0.00,weatherlink.com 1.10,2013-07-31 15:33:00,
2013-07-31 11:49:00,74.1,55.0,30.09,SW,221,1.0,6.0,51,0.00,,,0.00,weatherlink.com 1.10,2013-07-31 15:49:00,
2013-07-31 12:04:00,74.5,56.0,30.09,South,179,3.0,4.0,52,0.00,,,0.00,weatherlink.com 1.10,2013-07-31 16:04:00,
2013-07-31 12:19:00,74.3,55.0,30.09,South,180,1.0,5.0,51,0.00,,,0.00,weatherlink.com 1.10,2013-07-31 16:19:00,
2013-07-31 12:34:00,74.2,56.0,30.08,South,186,2.0,4.0,54,0.00,,,0.00,weatherlink.com 1.10,2013-07-31 16:34:00,
2013-07-31 12:49:00,74.4,57.0,30.08,SE,145,0.0,3.0,54,0.00,,,0.00,weatherlink.com 1.10,2013-07-31 16:49:00,
2013-07-31 13:04:00,75.7,57.0,30.07,ESE,116,1.0,5.0,53,0.00,,,0.00,weatherlink.com 1.10,2013-07-31 17:04:00,
2013-07-31 13:19:00,75.6,57.0,30.07,SE,136,1.0,3.0,52,0.00,,,0.00,weatherlink.com 1.10,2013-07-31 17:19:00,
2013-07-31 13:34:00,75.8,57.0,30.07,SW,226,1.0,5.0,52,0.00,,,0.00,weatherlink.com 1.10,2013-07-31 17:34:00,
2013-07-31 13:49:00,76.9,57.0,30.07,South,174,4.0,4.0,51,0.00,,,0.00,weatherlink.com 1.10,2013-07-31 17:49:00,
2013-07-31 14:04:00,76.0,56.0,30.06,SSE,158,0.0,3.0,51,0.00,,,0.00,weatherlink.com 1.10,2013-07-31 18:04:00,
2013-07-31 14:19:00,75.7,58.0,30.06,ESE,118,2.0,3.0,54,0.00,,,0.00,weatherlink.com 1.10,2013-07-31 18:19:00,
2013-07-31 14:34:00,75.4,57.0,30.06,SSE,152,2.0,4.0,53,0.00,,,0.00,weatherlink.com 1.10,2013-07-31 18:34:00,
2013-07-31 14:49:00,74.9,59.0,30.06,South,175,2.0,4.0,59,0.00,,,0.00,weatherlink.com 1.10,2013-07-31 18:49:00,
2013-07-31 15:04:00,74.6,60.0,30.05,SSW,209,1.0,4.0,61,0.00,,,0.00,weatherlink.com 1.10,2013-07-31 19:04:00,
2013-07-31 15:19:00,74.2,60.0,30.05,SE,142,0.0,3.0,61,0.00,,,0.00,weatherlink.com 1.10,2013-07-31 19:19:00,
2013-07-31 15:34:00,74.5,61.0,30.04,SSE,151,2.0,3.0,62,0.00,,,0.00,weatherlink.com 1.10,2013-07-31 19:34:00,
2013-07-31 15:49:00,74.6,61.0,30.04,South,180,1.0,4.0,63,0.00,,,0.00,weatherlink.com 1.10,2013-07-31 19:49:00,
2013-07-31 16:04:00,74.9,60.0,30.03,ESE,123,3.0,3.0,61,0.00,,,0.00,weatherlink.com 1.10,2013-07-31 20:04:00,
2013-07-31 16:19:00,76.5,61.0,30.03,SW,222,2.0,3.0,58,0.00,,,0.00,weatherlink.com 1.10,2013-07-31 20:19:00,
2013-07-31 16:34:00,76.0,58.0,30.02,ESE,121,1.0,2.0,54,0.00,,,0.00,weatherlink.com 1.10,2013-07-31 20:34:00,
2013-07-31 16:49:00,76.4,58.0,30.02,SE,139,0.0,4.0,53,0.00,,,0.00,weatherlink.com 1.10,2013-07-31 20:49:00,
2013-07-31 17:04:00,76.0,60.0,30.02,SSE,150,0.0,2.0,58,0.00,,,0.00,weatherlink.com 1.10,2013-07-31 21:04:00,
2013-07-31 17:19:00,76.0,60.0,30.02,SW,221,1.0,4.0,57,0.00,,,0.00,weatherlink.com 1.10,2013-07-31 21:19:00,
2013-07-31 17:34:00,75.3,59.0,30.02,South,177,2.0,3.0,58,0.00,,,0.00,weatherlink.com 1.10,2013-07-31 21:34:00,
2013-07-31 17:49:00,74.2,60.0,30.02,South,184,0.0,3.0,62,0.00,,,0.00,weatherlink.com 1.10,2013-07-31 21:49:00,
2013-07-31 18:04:00,73.6,60.0,30.02,SE,140,2.0,4.0,63,0.00,,,0.00,weatherlink.com 1.10,2013-07-31 22:04:00,
2013-07-31 18:19:00,73.3,60.0,30.01,ESE,112,1.0,5.0,63,0.00,,,0.00,weatherlink.com 1.10,2013-07-31 22:19:00,
2013-07-31 18:34:00,71.9,60.0,30.01,ESE,117,1.0,4.0,67,0.00,,,0.00,weatherlink.com 1.10,2013-07-31 22:34:00,
2013-07-31 18:49:00,71.6,60.0,30.01,ESE,118,1.0,7.0,66,0.00,,,0.00,weatherlink.com 1.10,2013-07-31 22:49:00,
2013-07-31 19:04:00,72.1,61.0,30.00,SE,131,2.0,5.0,67,0.00,,,0.00,weatherlink.com 1.10,2013-07-31 23:04:00,
2013-07-31 19:19:00,73.0,60.0,30.00,SSE,155,1.0,3.0,65,0.00,,,0.00,weatherlink.com 1.10,2013-07-31 23:19:00,
2013-07-31 19:34:00,72.5,60.0,30.00,ESE,110,0.0,3.0,66,0.00,,,0.00,weatherlink.com 1.10,2013-07-31 23:34:00,
2013-07-31 19:49:00,70.7,60.0,30.00,East,86,3.0,6.0,69,0.00,,,0.00,weatherlink.com 1.10,2013-07-31 23:49:00,
2013-07-31 20:04:00,69.1,60.0,30.00,SE,134,0.0,3.0,73,0.00,,,0.00,weatherlink.com 1.10,2013-08-01 00:04:00,
2013-07-31 20:19:00,67.9,60.0,30.00,SE,134,0.0,2.0,77,0.00,,,0.00,weatherlink.com 1.10,2013-08-01 00:19:00,
2013-07-31 20:34:00,66.8,60.0,30.00,SE,131,0.0,3.0,79,0.00,,,0.00,weatherlink.com 1.10,2013-08-01 00:34:00,
2013-07-31 20:49:00,65.5,60.0,30.00,ENE,78,2.0,3.0,81,0.00,,,0.00,weatherlink.com 1.10,2013-08-01 00:49:00,
2013-07-31 21:04:00,64.9,60.0,30.00,SE,134,2.0,3.0,83,0.00,,,0.00,weatherlink.com 1.10,2013-08-01 01:04:00,
2013-07-31 21:19:00,64.4,60.0,30.00,ESE,108,0.0,1.0,84,0.00,,,0.00,weatherlink.com 1.10,2013-08-01 01:19:00,
2013-07-31 21:34:00,63.9,59.0,30.00,ESE,107,0.0,3.0,85,0.00,,,0.00,weatherlink.com 1.10,2013-08-01 01:34:00,
2013-07-31 21:49:00,63.6,59.0,30.00,ESE,107,1.0,2.0,85,0.00,,,0.00,weatherlink.com 1.10,2013-08-01 01:49:00,
2013-07-31 22:04:00,63.5,59.0,30.00,SSW,197,0.0,2.0,86,0.00,,,0.00,weatherlink.com 1.10,2013-08-01 02:04:00,
2013-07-31 22:19:00,63.3,59.0,30.00,ESE,116,0.0,2.0,86,0.00,,,0.00,weatherlink.com 1.10,2013-08-01 02:19:00,
2013-07-31 22:34:00,62.5,59.0,30.00,ESE,116,0.0,0.0,88,0.00,,,0.00,weatherlink.com 1.10,2013-08-01 02:34:00,
2013-07-31 22:49:00,62.2,59.0,30.00,ESE,116,0.0,2.0,89,0.00,,,0.00,weatherlink.com 1.10,2013-08-01 02:49:00,
2013-07-31 23:05:00,61.8,59.0,30.00,ESE,116,0.0,2.0,89,0.00,,,0.00,weatherlink.com 1.10,2013-08-01 03:05:00,
2013-07-31 23:20:00,61.1,59.0,30.00,ESE,116,0.0,1.0,91,0.00,,,0.00,weatherlink.com 1.10,2013-08-01 03:20:00,
2013-07-31 23:35:00,60.4,58.0,30.00,ESE,117,0.0,2.0,92,0.00,,,0.00,weatherlink.com 1.10,2013-08-01 03:35:00,
2013-07-31 23:50:00,60.3,58.0,30.00,SSE,166,0.0,1.0,92,0.00,,,0.00,weatherlink.com 1.10,2013-08-01 03:50:00,